Walter López fue el más veloz en la segunda tanda de entrenamientos de la Clase 2 del Turismo Nacional, que se llevó a cabo en San Jorge. El piloto de Sáenz Peña logró un registro de 1:27.786 con el Nissan March que alista el MG-C Competición y mejoró el tiempo que había marcado Damián Kirstein en el ensayo inicial, de cara a la primera clasificación.

En el trazado santafesino, el segundo puesto lo ocupó Gerónimo Núñez, a 15 centésimas; mientras que Ever Franetovich culminó en la tercera colocación, a 21 centésimas de la punta.

Por su parte, los diez primeros lugares los completaron Gastón Iansa, Alejo Borgiani, Kirstein, Alejandro Weimann, Marcos Fernández, Sebastián Pérez y Miguel Ciaurro.

    2do. Entrenamiento TN Clase 2 – San Jorge    

Pos. Piloto Marca Tiempo Dif.
1 43 Walter LOPEZ NISSAN MARCH 1:27.786
2 120 Geronimo NUÑEZ NISSAN MARCH 1:27.870 0.084
3 14 Ever FRANETOVICH FIAT PALIO 1:28.038 0.252
4 11 Gaston IANSA FIESTA KINETIC 1:28.076 0.290
5 36 Alejo BORGIANI VW TREND 1:28.117 0.331
6 26 Damian KIRSTEIN PEUGEOT 208 1:28.267 0.481
7 78 Alejandro WEIMANN TOYOTA ETIOS 1:28.343 0.557
8 18 Marcos FERNANDEZ NISSAN MARCH 1:28.362 0.576
9 25 Sebastian PEREZ CHEVROLET ONIX 1:28.488 0.702
10 6 Miguel CIAURRO VW TREND 1:28.561 0.775
11 65 Fernando GOMEZ FREDES NISSAN MARCH 1:28.567 0.781
12 73 Lucas BAGNERA RENAULT CLIO 1:28.584 0.798
13 66 Martin ALESSI RENAULT CLIO 1:28.615 0.829
14 141 Juan Pablo ROTONDO FIESTA KINETIC 1:28.796 1.010
15 112 Damian ROMERO TOYOTA ETIOS 1:28.814 1.028
16 63 Renzo TESTA FIAT PALIO 1:28.865 1.079
17 13 Joel BORGOBELLO VW TREND 1:28.905 1.119
18 32 Sergio FERNANDEZ NISSAN MARCH 1:28.959 1.173
19 7 Maximiliano BESTANI NISSAN MARCH 1:28.983 1.197
20 24 Juan Ignacio CANELA FIESTA KINETIC 1:29.004 1.218
21 31 Facundo LEANEZ TOYOTA ETIOS 1:29.087 1.301
22 99 Luciano GONZALEZ RENAULT CLIO 1:29.088 1.302
23 69 Agustin HERRERA RENAULT CLIO 1:29.124 1.338
24 178 Ramiro ALCAINE TOYOTA ETIOS 1:29.151 1.365
25 72 Lucas TEDESCHI TOYOTA ETIOS 1:29.180 1.394
26 9 Juan Martín ELUCHANS TOYOTA ETIOS 1:29.218 1.432
27 5 Gaston GRASSO TOYOTA ETIOS 1:29.236 1.450
28 150 Damián MARKEL TOYOTA ETIOS 1:29.317 1.531
29 1 Nicolas POSCO FIESTA KINETIC 1:29.332 1.546
30 100 Ian REUTEMANN FIESTA KINETIC 1:29.434 1.648
31 114 Matias SIGNORELLI NISSAN MARCH 1:29.437 1.651
32 2 Juan Pablo PASTORI TOYOTA ETIOS 1:29.447 1.661
33 47 Ignacio PROCACITTO VW TREND 1:29.545 1.759
34 35 Diego LEANEZ TOYOTA ETIOS 1:29.573 1.787
35 79 Andres CALDERON VW TREND 1:29.891 2.105
36 54 Facundo ROTONDO FIESTA KINETIC 1:29.913 2.127
37 199 Emiliano GIACOPONI CHEVROLET CORSA 1:30.352 2.566
38 21 Gabriel SCORDIA FIESTA KINETIC 1:31.059 3.273
39 52 Gustavo ACUÑA VW TREND 1:31.467 3.681
40 39 Alejandro VALDERREY FIAT PALIO 1:32.434 4.648

S.B

Compartir